Location: Christchurch
(43.5330°S, 172.6330°E)
Time: 12:24:39
(UTC+13:00)

Daily predictions for brighter satellites

Satellite Brightness Start Highest point End
(mag) Time Altitude Azimuth Time Altitude Azimuth Time Altitude Azimuth
Cosmos 1354 Rocket 4.0 20:24:46 10° NNW 20:30:03 76° ENE 20:35:27 10° SSE
Cosmos 1605 Rocket 4.0 20:27:31 10° N 20:33:38 78° E 20:39:55 10° S
Cosmos 1833 Rocket 4.4 20:32:16 10° ENE 20:33:48 11° E 20:35:21 10° E
Cosmos 1867 3.8 20:30:31 10° SSW 20:35:54 58° SE 20:41:14 10° NE
Envisat 3.1 20:30:45 10° SSE 20:35:57 86° ENE 20:41:04 10° NNW
Cosmos 1340 Rocket 3.1 20:32:11 10° SSW 20:36:14 73° W 20:40:11 10° N
Meteor 2-10 Rocket 4.3 20:41:24 10° SSW 20:47:15 66° W 20:52:54 10° N
CZ-2D R/B 3.7 20:47:08 10° SSE 20:50:51 41° E 20:54:30 10° N
Cosmos 2173 Rocket 4.4 20:45:29 10° NNE 20:51:06 40° E 20:56:48 10° SSE
Cosmos 1939 Rocket 3.3 20:49:02 10° SSE 20:52:45 39° E 20:56:26 10° NNE
YAOGAN 1 2.5 20:50:34 10° SSE 20:54:59 77° E 20:59:21 10° N
CZ-4C R/B 3.0 20:50:23 10° NNW 20:58:22 59° ENE 21:05:23 10° SE
Cosmos 1802 Rocket 4.5 20:55:48 10° NNE 21:01:33 40° E 21:07:19 10° SSE
Cosmos 1869 3.8 20:58:26 10° S 21:02:21 43° ESE 21:05:39 14° NNE
FengYun 1-2 T 4.5 20:56:53 10° SSE 21:02:37 79° WSW 21:08:19 10° NNW
CSL-04 Rocket 3.7 20:57:42 10° SSE 21:03:19 80° ENE 21:08:54 10° NNW
Cosmos 1842 Rocket 4.5 21:01:17 10° SSW 21:05:35 51° W 21:09:50 10° N
Cosmos 2082 Rocket 3.7 21:05:23 14° ENE 21:05:46 14° E 21:08:40 10° ESE
GPS 2-04 Rocket1 4.0 21:05:21 10° NW 21:07:57 19° NNE 21:09:00 17° NE
DELTA 2 R/B (1) 3.8 21:02:33 10° WNW 21:08:05 56° N 21:12:30 16° E
Cosmos 2221 2.9 21:05:09 10° SSW 21:09:32 66° W 21:13:50 10° N
PSLV R/B 4.5 21:08:31 10° WNW 21:10:38 21° NNW 21:11:38 17° NNE
Lacrosse 4 Rocket 3.7 21:09:35 10° S 21:12:03 14° SE 21:14:28 10° ESE
Cosmos 1892 3.8 21:11:35 20° NE 21:13:04 26° E 21:16:19 10° SSE
BREEZE-M DEB (TANK) 3.2 21:15:10 10° SW 21:17:16 25° S 21:19:48 11° ESE
Ariane Rocket 3.1 21:13:29 10° SSE 21:18:32 54° E 21:23:31 10° N
DMSP B5D2-2 4.3 21:13:24 10° N 21:18:37 74° WNW 21:23:55 10° SSW
Cosmos 1076 Rocket 3.5 21:14:44 10° N 21:19:03 85° W 21:23:24 10° S
Cosmos 2100 Rocket 4.0 21:13:10 10° N 21:19:20 73° E 21:25:38 10° SSE
USA 229 DEB 3.7 21:13:00 10° SW 21:19:56 84° NW 21:25:18 16° NNE
USA 229 3.7 21:13:01 10° SW 21:19:59 85° NW 21:25:21 17° NNE
Cosmos 1697 Rocket 3.8 21:15:54 10° S 21:20:51 29° SE 21:23:50 19° E
ATLAS CENTAUR R/B 3.8 21:06:05 10° NW 21:21:50 87° NE 21:27:18 10° SE
BREEZE-M DEB (TANK) 4.1 21:18:14 10° WSW 21:22:14 60° SSE 21:34:08 13° E
NOAA 11 4.2 21:16:50 10° SSE 21:22:27 77° ENE 21:27:58 10° N
COSMOS 2406 3.2 21:18:04 10° N 21:23:42 65° ENE 21:29:22 10° SSE
Okean 3 Rocket 3.8 21:19:48 12° NNE 21:23:48 48° E 21:28:06 10° SSE
CZ-4 R/B 3.2 21:21:05 10° S 21:24:44 35° WSW 21:28:26 10° NW
Cosmos 2058 2.8 21:20:40 10° N 21:24:50 79° E 21:29:03 10° S
NOSS 3-1 (A) 3.4 21:19:43 10° SSW 21:26:12 67° SE 21:29:47 23° NE
FREGAT/IRIS 2.8 21:24:05 10° SSE 21:26:52 41° E 21:27:07 39° ENE
MOS 1 Rocket 4.1 21:24:43 23° ENE 21:27:06 37° ESE 21:31:47 10° S
Meteor 2-20 Rocket 4.4 21:21:26 10° S 21:27:40 87° E 21:33:47 10° N
In-Cosmos 22 Rocket 4.3 21:23:11 10° N 21:28:53 60° E 21:34:41 10° SSE
USA 186 2.4 21:28:24 10° SSE 21:31:39 37° E 21:31:59 36° ENE
USA 215 3.9 21:26:14 10° ESE 21:31:59 31° NE 21:37:40 10° N
Cosmos 2369 4.4 21:28:52 10° SSW 21:34:14 39° ESE 21:36:53 25° ENE
Cosmos 2016 Rocket 4.0 21:29:56 10° N 21:36:13 63° E 21:42:32 10° SSE
CZ-2C R/B 4.4 21:34:39 10° SE 21:38:40 22° E 21:38:40 22° E
Cosmos 2151 3.1 21:36:43 23° NNE 21:39:10 55° E 21:43:24 10° SSE
MOS 1 4.4 21:34:05 10° SSE 21:39:45 54° E 21:44:50 13° N
MONITOR-E 3.9 21:37:20 10° S 21:40:13 83° W 21:41:27 31° NNW
NOSS 3-1 (C) 3.5 21:34:23 10° SW 21:40:43 67° WNW 21:44:18 22° NNE
SJ-6B 3.4 21:37:14 10° SSE 21:41:10 38° E 21:41:47 36° ENE
CZ-2C R/B 2.8 21:39:24 13° N 21:44:06 70° WNW 21:49:22 10° SSW
ISS -2.0 21:47:02 10° W 21:50:10 33° SSW 21:53:08 11° SE
BREEZE-M R/B 4.0 21:38:12 10° WSW 21:50:27 77° SSE 21:51:48 39° E
IRS-1A Rocket 4.2 21:46:00 10° SSE 21:51:52 86° ENE 21:57:31 10° NNW
Cosmos 1656 3.7 21:48:11 10° SSW 21:53:56 81° ESE 21:56:36 33° NNE
Cosmos 1408 3.4 21:57:07 35° ESE 21:57:07 35° ESE 21:59:47 10° SSE
Cosmos 1356 Rocket 3.8 21:54:52 10° SSW 21:59:00 59° W 22:00:59 28° NNW
Cosmos 2322 Rocket 4.4 21:57:11 10° SSE 21:59:08 12° SE 22:01:06 10° ESE
Cosmos 2278 4.1 21:58:46 10° SSW 22:04:19 48° ESE 22:05:57 38° ENE
SPOT 3 Rocket 3.6 22:01:08 10° SSE 22:06:17 57° E 22:07:46 42° NNE
USA 267 4.4 22:02:06 15° ESE 22:06:53 36° SSE 22:12:48 10° SW
SJ-11-01 4.4 22:04:47 10° S 22:09:38 80° WSW 22:13:00 20° NNW
NOSS 2-3 (C) 4.3 22:03:39 10° SW 22:10:38 88° NW 22:12:32 44° NNE
Cosmos 2061 Rocket 4.3 22:06:18 10° NNW 22:12:30 67° W 22:18:52 10° S
Cosmos 1980 Rocket 2.8 22:08:15 10° SSW 22:13:34 40° ESE 22:14:45 35° E
Resurs 01 Rocket 2.9 22:11:30 10° SSE 22:14:08 26° ESE 22:14:08 26° ESE
Cosmos 1833 Rocket 2.6 22:11:05 10° NNW 22:16:45 82° ENE 22:22:29 10° SSE
Cosmos 1680 Rocket 3.5 22:13:51 10° SSW 22:19:12 66° ESE 22:20:09 55° ENE
Cosmos 1515 Rocket 3.6 22:16:40 10° S 22:21:07 64° E 22:21:08 64° E
Cosmos 1743 Rocket 4.1 22:22:33 44° ESE 22:22:33 44° ESE 22:26:07 10° SSE
H-2A R/B 1.8 22:16:51 10° SSE 22:21:54 75° ENE 22:23:03 53° N
Resurs 1-3 4.1 22:18:56 10° SSE 22:22:30 45° ESE 22:22:30 45° ESE
Tsikada Rocket 4.0 22:17:50 10° S 22:24:09 84° W 22:26:44 38° N
SJ 16-02 3.1 22:27:05 20° SE 22:27:05 20° SE 22:28:47 10° SE
Genesis I 4.1 22:23:13 10° SW 22:26:56 40° WNW 22:27:02 40° WNW
Mayak 0.2 22:30:32 28° SE 22:30:32 28° SE 22:33:27 10° S
EO 1 Del DPAF 3.6 22:29:46 57° WNW 22:29:48 57° W 22:33:38 10° SSW
Meteor 2-3 Rocket 4.0 22:30:36 49° E 22:30:40 49° E 22:36:15 10° SSE
Cosmos 1151 Rocket 3.2 22:29:07 10° SSW 22:33:27 64° W 22:33:48 61° WNW
Cosmos 923 Rocket 4.1 22:28:05 10° SSW 22:33:29 73° WNW 22:34:36 55° N
ATLAS CENTAUR Rocket 4.2 22:02:55 10° WNW 22:36:17 37° NNW 22:38:39 33° N
Cosmos 1606 3.7 22:35:32 10° S 22:38:19 40° SSE 22:38:19 40° SSE
Cosmos 1825 3.1 22:44:05 48° SSW 22:44:05 48° SSW 22:47:02 10° S
Cosmos 1464 Rocket 4.5 22:45:13 41° ESE 22:45:13 41° ESE 22:50:34 10° SSE
Meteor 1-26 Rocket 4.1 22:39:35 10° S 22:45:07 65° ESE 22:45:15 65° E
Thor Agena Rocket 4.0 22:45:28 46° NW 22:46:29 54° W 22:51:31 10° SSW
CZ-4C R/B 4.1 22:39:57 10° WNW 22:47:17 40° SW 22:53:41 10° SSE
Cosmos 1238 Rocket 4.3 22:49:36 28° S 22:49:36 28° S 22:51:18 10° S
Cosmos 2082 Rocket 2.2 22:47:05 43° NNW 22:49:03 82° WSW 22:54:46 10° SSE
ARGOS 3.4 22:45:55 10° S 22:51:21 69° WSW 22:52:58 45° NW
Lacrosse 4 Rocket 1.9 22:46:54 10° SSW 22:50:47 65° SSW 22:50:47 65° SSW
DELTA 2 R/B (1) 4.1 22:48:44 10° W 22:53:16 47° NW 22:53:16 47° NW
Cosmos 1500 Rocket 4.1 22:56:33 56° S 22:56:33 56° S 23:00:07 10° S
Cosmos 2228 Rocket 3.5 22:53:15 10° S 22:57:11 63° SSW 22:57:11 63° SSW
Cosmos 2233 Rocket 4.3 22:55:04 33° NNW 22:57:54 63° W 23:04:13 10° S
Lacrosse 5 rocket 4.1 23:04:11 12° SE 23:04:11 12° SE 23:04:37 10° SE
Cosmos 1697 Rocket 3.3 22:59:34 10° SW 23:05:01 47° WNW 23:05:35 46° NW
Cosmos 2360 4.3 23:01:22 10° SSW 23:07:05 69° WNW 23:07:12 69° WNW
SL-8 R/B 4.2 23:03:19 10° WSW 23:07:30 59° SSW 23:07:30 59° SSW
USA 215 3.3 23:08:44 10° SE 23:15:22 79° SW 23:21:57 10° WNW
SL-16 R/B 3.0 23:11:01 10° SSW 23:16:05 40° SE 23:16:05 40° SE
Cosmos 1898 Rocket 3.9 23:17:36 60° W 23:17:54 61° WSW 23:23:14 10° SSE
CZ-2C R/B 3.7 23:13:39 10° S 23:18:50 54° WSW 23:19:45 48° WNW
Cosmos 2034 Rocket 4.2 23:25:24 59° ESE 23:25:24 59° ESE 23:31:03 10° SSE
ISS -0.6 23:24:58 10° SW 23:26:03 15° SW 23:26:03 15° SW
Spot 2 Rocket 4.2 23:25:07 10° SSE 23:28:52 50° SSE 23:28:52 50° SSE
Cosmos 2322 Rocket 2.9 23:38:53 10° SSW 23:43:34 49° SSE 23:43:34 49° SSE
USA 267 3.2 23:49:25 82° SSE 23:49:25 82° SSE 23:56:01 10° SW
Cosmos 2360 Rocket 3.5 23:46:40 10° S 23:51:06 33° SE 23:51:06 33° SE
Resurs 01 Rocket 3.5 23:48:11 10° S 23:51:43 26° WSW 23:51:43 26° WSW
